This demonstration page uses our WeatherBlox Daily Observations layout. Learn more.

Left ArrowRight Arrow

Hourly Observations for November 15, 2020

Temp ( °F °C ) Dew Point ( °F °C ) Humidity (%) Winds ( mph kmh ) Pressure ( in mb ) Visibility ( mi km ) Precip ( " mm )
12:53 am 00:53 Cloudy 59 15 37 2.8 44 44 VRB 5 7 29.78 1009 10 16 0.00 0.00
1:53 am 01:53 Partly Cloudy 60 15.6 37 2.8 42 42 VRB 7 11 29.72 1007 10 16 0.00 0.00
2:53 am 02:53 Mostly Cloudy 60 15.6 39 3.9 46 46 S 10 17 29.65 1004 10 16 0.00 0.00
3:53 am 03:53 Cloudy 63 17.2 42 5.6 47 47 S 12 19 29.64 1004 10 16 0.00 0.00
4:53 am 04:53 Cloudy with Rain 56 13.3 50 10 81 81 SSW 7 11 29.62 1003 5 8 0.05 1.27
5:53 am 05:53 Cloudy with Light Rain 56 13.3 51 10.6 84 84 S 10 17 29.57 1001 5 8 0.05 1.27
6:38 am 06:38 Cloudy with Light Rain 55 12.8 52 11.1 90 90 SW 6 9 29.62 1003 8 13 0.01 0.25
6:53 am 06:53 Cloudy with Rain 55 12.8 52 11.1 90 90 SSW 5 7 29.62 1003 4 6 0.04 1.02
7:03 am 07:03 Cloudy with Light Rain 55 12.8 52 11.1 90 90 SSW 8 13 29.63 1003 6 10 0.00 0.00
7:26 am 07:26 Cloudy with Rain 55 12.8 53 11.7 93 93 WSW 9 15 29.63 1003 3 4 0.08 2.03
7:33 am 07:33 Cloudy with Light Rain 55 12.8 53 11.7 93 93 SW 8 13 29.62 1003 5 8 0.08 2.03
7:53 am 07:53 Cloudy with Light Rain 55 12.8 53 11.7 93 93 SSW 7 11 29.62 1003 5 8 0.10 2.54
8:53 am 08:53 Mostly Cloudy with Light Rain 55 12.8 53 11.7 93 93 VRB 7 11 29.58 1002 10 16 0.02 0.51
9:53 am 09:53 Cloudy 58 14.4 53 11.7 84 84 SW 10 17 29.61 1003 10 16 0.00 0.00
10:04 am 10:04 Mostly Cloudy 58 14.4 53 11.7 84 84 SW 15 24 29.62 1003 10 16 0.00 0.00
10:53 am 10:53 Cloudy with Light Rain 56 13.3 49 9.4 77 77 WSW 24 39 29.63 1003 10 16 0.00 0.00
11:53 am 11:53 Partly Cloudy 54 12.2 37 2.8 53 53 W 23 37 29.72 1007 10 16 0.00 0.00
12:53 pm 12:53 Mostly Cloudy with Light Rain 53 11.7 35 1.7 51 51 W 25 41 29.76 1008 10 16 0.00 0.00
1:53 pm 13:53 undefined 52 11.1 35 1.7 53 53 W 20 31 29.82 1010 10 16 0.00 0.00
2:53 pm 14:53 Cloudy 51 10.6 35 1.7 54 54 W 17 28 29.87 1011 10 16 0.00 0.00
3:53 pm 15:53 Mostly Cloudy 50 10 35 1.7 57 57 W 13 20 29.90 1013 10 16 0.00 0.00
4:53 pm 16:53 Mostly Sunny 48 8.9 34 1.1 58 58 W 9 15 29.93 1014 10 16 0.00 0.00
5:53 pm 17:53 Mostly Cloudy 49 9.4 34 1.1 56 56 WSW 8 13 29.96 1015 10 16 0.00 0.00
6:53 pm 18:53 Mostly Clear 47 8.3 33 0.6 59 59 W 9 15 29.99 1016 10 16 0.00 0.00
7:53 pm 19:53 Partly Cloudy 48 8.9 32 0 54 54 W 13 20 30.03 1017 10 16 0.00 0.00
8:53 pm 20:53 Cloudy 48 8.9 32 0 54 54 W 10 17 30.05 1018 10 16 0.00 0.00
9:53 pm 21:53 Cloudy 48 8.9 31 -0.6 52 52 WSW 14 22 30.06 1018 10 16 0.00 0.00
10:53 pm 22:53 Mostly Cloudy 47 8.3 31 -0.6 54 54 WSW 13 20 30.07 1018 10 16 0.00 0.00
11:53 pm 23:53 Mostly Clear 45 7.2 30 -1.1 56 56 WSW 9 15 30.08 1019 10 16 0.00 0.00

Powered by AerisWeather